Time,TemperatureF,DewpointF,PressureIn,WindDirection,WindDirectionDegrees,WindSpeedMPH,WindSpeedGustMPH,Humidity,HourlyPrecipIn,Conditions,Clouds,dailyrainin,SoftwareType,DateUTC
2013-08-27 00:01:00,76.8,63.7,29.96,West,279,7.2,7.2,64,0.00,,SKC,0.00,VWS V14.01,2013-08-27 05:01:00,
2013-08-27 00:06:00,76.8,63.7,29.96,West,279,7.2,7.2,64,0.00,,SKC,0.00,VWS V14.01,2013-08-27 05:06:00,
2013-08-27 00:11:00,76.8,63.7,29.96,West,279,7.2,7.2,64,0.00,,SKC,0.00,VWS V14.01,2013-08-27 05:11:00,
2013-08-27 00:16:00,76.8,63.7,29.96,West,279,7.2,7.2,64,0.00,,SKC,0.00,VWS V14.01,2013-08-27 05:16:00,
2013-08-27 00:21:00,76.6,63.6,29.96,West,279,7.2,7.2,64,0.00,,SKC,0.00,VWS V14.01,2013-08-27 05:21:00,
2013-08-27 00:26:00,76.6,63.6,29.96,West,279,7.2,7.2,64,0.00,,SKC,0.00,VWS V14.01,2013-08-27 05:26:00,
2013-08-27 00:31:00,76.5,63.4,29.96,West,279,7.2,7.2,64,0.00,,SKC,0.00,VWS V14.01,2013-08-27 05:31:00,
2013-08-27 00:36:00,76.6,64.0,29.99,West,279,7.2,7.2,65,0.00,,SKC,0.00,VWS V14.01,2013-08-27 05:36:00,
2013-08-27 00:41:00,76.5,63.8,29.99,West,279,7.2,7.2,65,0.00,,SKC,0.00,VWS V14.01,2013-08-27 05:41:00,
2013-08-27 00:46:00,76.5,63.8,29.99,West,279,7.2,7.2,65,0.00,,SKC,0.00,VWS V14.01,2013-08-27 05:46:00,
2013-08-27 00:51:00,76.5,63.8,29.96,West,279,7.2,7.2,65,0.00,,SKC,0.00,VWS V14.01,2013-08-27 05:51:00,
2013-08-27 00:56:00,76.1,63.9,29.96,West,279,7.2,7.2,66,0.00,,SKC,0.00,VWS V14.01,2013-08-27 05:56:00,
2013-08-27 01:01:00,76.1,63.9,29.96,West,279,7.2,7.2,66,0.00,,SKC,0.00,VWS V14.01,2013-08-27 06:01:00,
2013-08-27 01:06:00,75.9,63.8,29.96,West,279,7.2,7.2,66,0.00,,SKC,0.00,VWS V14.01,2013-08-27 06:06:00,
2013-08-27 01:11:00,76.1,64.4,29.96,West,279,7.2,7.2,67,0.00,,SKC,0.00,VWS V14.01,2013-08-27 06:11:00,
2013-08-27 01:16:00,76.1,64.4,29.96,West,279,7.2,7.2,67,0.00,,SKC,0.00,VWS V14.01,2013-08-27 06:16:00,
2013-08-27 01:21:00,76.1,64.4,29.96,West,279,7.2,7.2,67,0.00,,SKC,0.00,VWS V14.01,2013-08-27 06:21:00,
2013-08-27 01:26:00,76.3,64.5,29.96,West,279,7.2,7.2,67,0.00,,SKC,0.00,VWS V14.01,2013-08-27 06:26:00,
2013-08-27 01:31:00,76.3,64.1,29.96,West,279,7.2,7.2,66,0.00,,SKC,0.00,VWS V14.01,2013-08-27 06:31:00,
2013-08-27 01:36:00,76.5,64.3,29.96,West,279,7.2,7.2,66,0.00,,SKC,0.00,VWS V14.01,2013-08-27 06:36:00,
2013-08-27 01:41:00,76.3,64.1,29.96,West,279,7.2,7.2,66,0.00,,SKC,0.00,VWS V14.01,2013-08-27 06:41:00,
2013-08-27 01:46:00,76.3,64.1,29.96,West,279,7.2,7.2,66,0.00,,SKC,0.00,VWS V14.01,2013-08-27 06:46:00,
2013-08-27 01:51:00,76.3,64.1,29.96,West,279,7.2,7.2,66,0.00,,SKC,0.00,VWS V14.01,2013-08-27 06:51:00,
2013-08-27 01:56:00,76.5,64.3,29.96,West,279,7.2,7.2,66,0.00,,SKC,0.00,VWS V14.01,2013-08-27 06:56:00,
2013-08-27 02:01:00,76.6,64.4,29.96,West,279,7.2,7.2,66,0.00,,SKC,0.00,VWS V14.01,2013-08-27 07:01:00,
2013-08-27 02:06:00,76.6,64.0,29.96,West,279,7.2,7.2,65,0.00,,SKC,0.00,VWS V14.01,2013-08-27 07:06:00,
2013-08-27 02:11:00,77.0,63.9,29.96,West,279,7.2,7.2,64,0.00,,SKC,0.00,VWS V14.01,2013-08-27 07:11:00,
2013-08-27 02:16:00,77.0,63.9,29.96,West,279,7.2,7.2,64,0.00,,SKC,0.00,VWS V14.01,2013-08-27 07:16:00,
2013-08-27 02:21:00,77.0,63.5,29.93,West,279,7.2,7.2,63,0.00,,SKC,0.00,VWS V14.01,2013-08-27 07:21:00,
2013-08-27 02:26:00,77.2,63.6,29.93,West,279,7.2,7.2,63,0.00,,SKC,0.00,VWS V14.01,2013-08-27 07:26:00,
2013-08-27 02:31:00,77.2,63.6,29.93,West,279,7.2,7.2,63,0.00,,SKC,0.00,VWS V14.01,2013-08-27 07:31:00,
2013-08-27 02:36:00,77.0,63.5,29.93,West,279,7.2,7.2,63,0.00,,SKC,0.00,VWS V14.01,2013-08-27 07:36:00,
2013-08-27 02:41:00,77.2,63.6,29.93,West,279,7.2,7.2,63,0.00,,SKC,0.00,VWS V14.01,2013-08-27 07:41:00,
2013-08-27 02:46:00,77.4,63.3,29.93,West,279,7.2,7.2,62,0.00,,SKC,0.00,VWS V14.01,2013-08-27 07:46:00,
2013-08-27 02:51:00,77.2,63.2,29.93,West,279,7.2,7.2,62,0.00,,SKC,0.00,VWS V14.01,2013-08-27 07:51:00,
2013-08-27 02:56:00,77.2,63.2,29.93,West,279,7.2,7.2,62,0.00,,SKC,0.00,VWS V14.01,2013-08-27 07:56:00,
2013-08-27 03:01:00,77.0,63.0,29.93,West,279,7.2,7.2,62,0.00,,SKC,0.00,VWS V14.01,2013-08-27 08:01:00,
2013-08-27 03:06:00,77.0,63.0,29.93,West,279,7.2,7.2,62,0.00,,SKC,0.00,VWS V14.01,2013-08-27 08:06:00,
2013-08-27 03:11:00,77.0,63.0,29.93,West,279,7.2,7.2,62,0.00,,SKC,0.00,VWS V14.01,2013-08-27 08:11:00,
2013-08-27 03:16:00,77.0,63.0,29.93,West,279,7.2,7.2,62,0.00,,SKC,0.00,VWS V14.01,2013-08-27 08:16:00,
2013-08-27 03:21:00,76.8,63.3,29.93,West,279,7.2,7.2,63,0.00,,SKC,0.00,VWS V14.01,2013-08-27 08:21:00,
2013-08-27 03:26:00,76.8,63.3,29.93,West,279,7.2,7.2,63,0.00,,SKC,0.00,VWS V14.01,2013-08-27 08:26:00,
2013-08-27 03:31:00,76.8,63.3,29.93,West,279,7.2,7.2,63,0.00,,SKC,0.00,VWS V14.01,2013-08-27 08:31:00,
2013-08-27 03:36:00,76.8,63.3,29.93,West,279,7.2,7.2,63,0.00,,SKC,0.00,VWS V14.01,2013-08-27 08:36:00,
2013-08-27 03:41:00,76.6,63.1,29.93,West,279,7.2,7.2,63,0.00,,SKC,0.00,VWS V14.01,2013-08-27 08:41:00,
2013-08-27 03:46:00,76.5,63.4,29.93,West,279,7.2,7.2,64,0.00,,SKC,0.00,VWS V14.01,2013-08-27 08:46:00,
2013-08-27 03:51:00,76.3,63.2,29.93,West,279,7.2,7.2,64,0.00,,SKC,0.00,VWS V14.01,2013-08-27 08:51:00,
2013-08-27 03:56:00,76.3,63.2,29.93,West,279,7.2,7.2,64,0.00,,SKC,0.00,VWS V14.01,2013-08-27 08:56:00,
2013-08-27 04:01:00,76.1,63.0,29.93,West,279,7.2,7.2,64,0.00,,SKC,0.00,VWS V14.01,2013-08-27 09:01:00,
2013-08-27 04:06:00,75.9,63.3,29.93,West,279,7.2,7.2,65,0.00,,SKC,0.00,VWS V14.01,2013-08-27 09:06:00,
2013-08-27 04:11:00,75.9,63.3,29.93,West,279,7.2,7.2,65,0.00,,SKC,0.00,VWS V14.01,2013-08-27 09:11:00,
2013-08-27 04:16:00,76.1,63.0,29.93,West,279,7.2,7.2,64,0.00,,SKC,0.00,VWS V14.01,2013-08-27 09:16:00,
2013-08-27 04:21:00,76.1,63.0,29.93,West,279,7.2,7.2,64,0.00,,SKC,0.00,VWS V14.01,2013-08-27 09:21:00,
2013-08-27 04:26:00,76.1,63.0,29.93,West,279,7.2,7.2,64,0.00,,SKC,0.00,VWS V14.01,2013-08-27 09:26:00,
2013-08-27 04:31:00,75.9,62.9,29.93,West,279,7.2,7.2,64,0.00,,SKC,0.00,VWS V14.01,2013-08-27 09:31:00,
2013-08-27 04:36:00,76.1,62.6,29.93,West,279,7.2,7.2,63,0.00,,SKC,0.00,VWS V14.01,2013-08-27 09:36:00,
2013-08-27 04:42:00,76.3,62.3,29.93,West,279,7.2,7.2,62,0.00,,SKC,0.00,VWS V14.01,2013-08-27 09:42:00,
2013-08-27 04:47:00,76.1,62.2,29.93,West,279,7.2,7.2,62,0.00,,SKC,0.00,VWS V14.01,2013-08-27 09:47:00,
2013-08-27 04:52:00,76.1,62.2,29.93,West,279,7.2,7.2,62,0.00,,SKC,0.00,VWS V14.01,2013-08-27 09:52:00,
2013-08-27 04:57:00,76.3,62.3,29.93,West,279,7.2,7.2,62,0.00,,SKC,0.00,VWS V14.01,2013-08-27 09:57:00,
2013-08-27 05:02:00,76.3,61.9,29.93,West,279,7.2,7.2,61,0.00,,SKC,0.00,VWS V14.01,2013-08-27 10:02:00,
2013-08-27 05:07:00,76.1,62.2,29.93,West,279,7.2,7.2,62,0.00,,SKC,0.00,VWS V14.01,2013-08-27 10:07:00,
2013-08-27 05:12:00,76.3,61.9,29.93,West,279,7.2,7.2,61,0.00,,SKC,0.00,VWS V14.01,2013-08-27 10:12:00,
2013-08-27 05:17:00,76.5,61.6,29.93,West,279,7.2,7.2,60,0.00,,SKC,0.00,VWS V14.01,2013-08-27 10:17:00,
2013-08-27 05:22:00,76.5,61.6,29.93,West,279,7.2,7.2,60,0.00,,SKC,0.00,VWS V14.01,2013-08-27 10:22:00,
2013-08-27 05:27:00,76.3,61.4,29.93,West,279,7.2,7.2,60,0.00,,SKC,0.00,VWS V14.01,2013-08-27 10:27:00,
2013-08-27 05:32:00,76.3,61.4,29.93,West,279,7.2,7.2,60,0.00,,SKC,0.00,VWS V14.01,2013-08-27 10:32:00,
2013-08-27 05:37:00,76.3,61.4,29.93,West,279,7.2,7.2,60,0.00,,SKC,0.00,VWS V14.01,2013-08-27 10:37:00,
2013-08-27 05:42:00,76.6,61.2,29.93,West,279,7.2,7.2,59,0.00,,SKC,0.00,VWS V14.01,2013-08-27 10:42:00,
2013-08-27 05:47:00,76.5,61.1,29.93,West,279,7.2,7.2,59,0.00,,SKC,0.00,VWS V14.01,2013-08-27 10:47:00,
2013-08-27 05:52:00,76.5,61.1,29.93,West,279,7.2,7.2,59,0.00,,SKC,0.00,VWS V14.01,2013-08-27 10:52:00,
2013-08-27 05:57:00,76.6,61.2,29.93,West,279,7.2,7.2,59,0.00,,SKC,0.00,VWS V14.01,2013-08-27 10:57:00,
2013-08-27 06:02:00,76.6,60.8,29.93,West,279,7.2,7.2,58,0.00,,SKC,0.00,VWS V14.01,2013-08-27 11:02:00,
2013-08-27 06:07:00,76.6,60.8,29.91,West,279,7.2,7.2,58,0.00,,SKC,0.00,VWS V14.01,2013-08-27 11:07:00,
2013-08-27 06:12:00,76.5,61.1,29.91,West,279,7.2,7.2,59,0.00,,SKC,0.00,VWS V14.01,2013-08-27 11:12:00,
2013-08-27 06:17:00,76.5,61.1,29.91,West,279,7.2,7.2,59,0.00,,SKC,0.00,VWS V14.01,2013-08-27 11:17:00,
2013-08-27 06:22:00,76.3,61.4,29.91,West,279,7.2,7.2,60,0.00,,SKC,0.00,VWS V14.01,2013-08-27 11:22:00,
2013-08-27 06:27:00,76.5,61.1,29.91,West,279,7.2,7.2,59,0.00,,SKC,0.00,VWS V14.01,2013-08-27 11:27:00,
2013-08-27 06:32:00,76.3,60.9,29.91,West,279,7.2,7.2,59,0.00,,SKC,0.00,VWS V14.01,2013-08-27 11:32:00,
2013-08-27 06:37:00,76.1,60.8,29.93,West,279,7.2,7.2,59,0.00,,SKC,0.00,VWS V14.01,2013-08-27 11:37:00,
2013-08-27 06:42:00,76.1,61.2,29.93,West,279,7.2,7.2,60,0.00,,SKC,0.00,VWS V14.01,2013-08-27 11:42:00,
2013-08-27 06:47:00,76.1,61.2,29.93,West,279,7.2,7.2,60,0.00,,SKC,0.00,VWS V14.01,2013-08-27 11:47:00,
2013-08-27 06:52:00,75.9,61.0,29.93,West,279,7.2,7.2,60,0.00,,SKC,0.00,VWS V14.01,2013-08-27 11:52:00,
2013-08-27 06:57:00,75.9,61.0,29.93,West,279,7.2,7.2,60,0.00,,SKC,0.00,VWS V14.01,2013-08-27 11:57:00,
2013-08-27 07:02:00,75.9,61.5,29.93,West,279,7.2,7.2,61,0.00,,SKC,0.00,VWS V14.01,2013-08-27 12:02:00,
2013-08-27 07:08:00,76.1,61.2,29.93,West,279,7.2,7.2,60,0.00,,SKC,0.00,VWS V14.01,2013-08-27 12:08:00,
2013-08-27 07:13:00,75.9,61.0,29.93,West,279,7.2,7.2,60,0.00,,SKC,0.00,VWS V14.01,2013-08-27 12:13:00,
2013-08-27 07:18:00,76.1,61.2,29.93,West,279,7.2,7.2,60,0.00,,SKC,0.00,VWS V14.01,2013-08-27 12:18:00,
2013-08-27 07:23:00,76.8,61.9,29.93,West,279,7.2,7.2,60,0.00,,SKC,0.00,VWS V14.01,2013-08-27 12:23:00,
2013-08-27 07:28:00,78.3,60.8,29.93,West,279,7.2,7.2,55,0.00,,SKC,0.00,VWS V14.01,2013-08-27 12:28:00,
2013-08-27 07:33:00,77.5,60.6,29.93,West,279,7.2,7.2,56,0.00,,SKC,0.00,VWS V14.01,2013-08-27 12:33:00,
2013-08-27 07:38:00,77.2,60.8,29.93,West,279,7.2,7.2,57,0.00,,SKC,0.00,VWS V14.01,2013-08-27 12:38:00,
2013-08-27 07:43:00,77.2,61.3,29.93,West,279,7.2,7.2,58,0.00,,SKC,0.00,VWS V14.01,2013-08-27 12:43:00,
2013-08-27 07:48:00,77.0,60.6,29.93,West,279,7.2,7.2,57,0.00,,SKC,0.00,VWS V14.01,2013-08-27 12:48:00,
2013-08-27 07:53:00,77.2,61.3,29.93,West,279,7.2,7.2,58,0.00,,SKC,0.00,VWS V14.01,2013-08-27 12:53:00,
2013-08-27 07:58:00,77.2,61.3,29.93,West,279,7.2,7.2,58,0.00,,SKC,0.00,VWS V14.01,2013-08-27 12:58:00,
2013-08-27 08:03:00,77.5,61.1,29.93,West,279,7.2,7.2,57,0.00,,SKC,0.00,VWS V14.01,2013-08-27 13:03:00,
2013-08-27 08:08:00,77.9,61.5,29.93,West,279,7.2,7.2,57,0.00,,SKC,0.00,VWS V14.01,2013-08-27 13:08:00,
2013-08-27 08:13:00,78.1,61.6,29.93,West,279,7.2,7.2,57,0.00,,SKC,0.00,VWS V14.01,2013-08-27 13:13:00,
2013-08-27 08:18:00,78.4,61.5,29.93,West,279,7.2,7.2,56,0.00,,SKC,0.00,VWS V14.01,2013-08-27 13:18:00,
2013-08-27 08:23:00,78.8,60.8,29.93,West,279,7.2,7.2,54,0.00,,SKC,0.00,VWS V14.01,2013-08-27 13:23:00,
2013-08-27 08:28:00,79.2,60.6,29.93,West,279,7.2,7.2,53,0.00,,SKC,0.00,VWS V14.01,2013-08-27 13:28:00,
2013-08-27 08:33:00,79.5,60.9,29.93,West,279,7.2,7.2,53,0.00,,SKC,0.00,VWS V14.01,2013-08-27 13:33:00,
2013-08-27 08:38:00,79.7,60.5,29.93,West,279,7.2,7.2,52,0.00,,SKC,0.00,VWS V14.01,2013-08-27 13:38:00,
2013-08-27 08:43:00,80.1,60.9,29.93,West,279,7.2,7.2,52,0.00,,SKC,0.00,VWS V14.01,2013-08-27 13:43:00,
2013-08-27 08:48:00,80.4,61.2,29.93,West,279,7.2,7.2,52,0.00,,SKC,0.00,VWS V14.01,2013-08-27 13:48:00,
2013-08-27 08:53:00,80.6,60.8,29.93,West,279,7.2,7.2,51,0.00,,SKC,0.00,VWS V14.01,2013-08-27 13:53:00,
2013-08-27 08:58:00,81.0,61.2,29.93,West,279,7.2,7.2,51,0.00,,SKC,0.00,VWS V14.01,2013-08-27 13:58:00,
2013-08-27 09:03:00,81.1,60.8,29.93,West,279,7.2,7.2,50,0.00,,SKC,0.00,VWS V14.01,2013-08-27 14:03:00,
2013-08-27 09:08:00,81.5,60.5,29.93,West,279,7.2,7.2,49,0.00,,SKC,0.00,VWS V14.01,2013-08-27 14:08:00,
2013-08-27 09:13:00,81.7,60.7,29.93,West,279,7.2,7.2,49,0.00,,SKC,0.00,VWS V14.01,2013-08-27 14:13:00,
2013-08-27 09:19:00,82.0,61.0,29.93,West,279,7.2,7.2,49,0.00,,SKC,0.00,VWS V14.01,2013-08-27 14:19:00,
2013-08-27 09:24:00,82.2,60.0,29.93,West,279,7.2,7.2,47,0.00,,SKC,0.00,VWS V14.01,2013-08-27 14:24:00,
2013-08-27 09:29:00,82.8,60.5,29.93,West,279,7.2,7.2,47,0.00,,SKC,0.00,VWS V14.01,2013-08-27 14:29:00,
2013-08-27 09:34:00,82.8,60.5,29.93,West,279,7.2,7.2,47,0.00,,SKC,0.00,VWS V14.01,2013-08-27 14:34:00,
2013-08-27 09:39:00,82.9,60.7,29.93,West,279,7.2,7.2,47,0.00,,SKC,0.00,VWS V14.01,2013-08-27 14:39:00,
2013-08-27 09:44:00,83.1,59.6,29.93,West,279,7.2,7.2,45,0.00,,SKC,0.00,VWS V14.01,2013-08-27 14:44:00,
2013-08-27 09:49:00,83.5,60.5,29.93,West,279,7.2,7.2,46,0.00,,SKC,0.00,VWS V14.01,2013-08-27 14:49:00,
2013-08-27 09:54:00,83.7,59.5,29.93,West,279,7.2,7.2,44,0.00,,SKC,0.00,VWS V14.01,2013-08-27 14:54:00,
2013-08-27 09:59:00,84.0,59.8,29.93,West,279,7.2,7.2,44,0.00,,SKC,0.00,VWS V14.01,2013-08-27 14:59:00,
2013-08-27 10:04:00,84.0,59.8,29.93,West,279,7.2,7.2,44,0.00,,SKC,0.00,VWS V14.01,2013-08-27 15:04:00,
2013-08-27 10:09:00,84.6,60.3,29.93,West,279,7.2,7.2,44,0.00,,SKC,0.00,VWS V14.01,2013-08-27 15:09:00,
2013-08-27 10:14:00,84.7,59.8,29.93,West,279,7.2,7.2,43,0.00,,SKC,0.00,VWS V14.01,2013-08-27 15:14:00,
2013-08-27 10:19:00,85.1,60.1,29.93,West,279,7.2,7.2,43,0.00,,SKC,0.00,VWS V14.01,2013-08-27 15:19:00,
2013-08-27 10:24:00,84.9,60.0,29.93,West,279,7.2,7.2,43,0.00,,SKC,0.00,VWS V14.01,2013-08-27 15:24:00,
2013-08-27 10:29:00,85.1,60.1,29.93,West,279,7.2,7.2,43,0.00,,SKC,0.00,VWS V14.01,2013-08-27 15:29:00,
2013-08-27 10:34:00,85.5,60.4,29.93,West,279,7.2,7.2,43,0.00,,SKC,0.00,VWS V14.01,2013-08-27 15:34:00,
2013-08-27 10:39:00,85.6,59.9,29.93,West,279,7.2,7.2,42,0.00,,SKC,0.00,VWS V14.01,2013-08-27 15:39:00,
2013-08-27 10:44:00,85.8,60.1,29.93,West,279,7.2,7.2,42,0.00,,SKC,0.00,VWS V14.01,2013-08-27 15:44:00,
2013-08-27 10:49:00,86.2,59.7,29.93,West,279,7.2,7.2,41,0.00,,SKC,0.00,VWS V14.01,2013-08-27 15:49:00,
2013-08-27 10:54:00,86.4,59.2,29.93,West,279,7.2,7.2,40,0.00,,SKC,0.00,VWS V14.01,2013-08-27 15:54:00,
2013-08-27 10:59:00,86.5,60.1,29.93,West,279,7.2,7.2,41,0.00,,SKC,0.00,VWS V14.01,2013-08-27 15:59:00,
2013-08-27 11:04:00,86.7,59.5,29.93,West,279,7.2,7.2,40,0.00,,SKC,0.00,VWS V14.01,2013-08-27 16:04:00,
2013-08-27 11:09:00,86.5,58.7,29.93,West,279,7.2,7.2,39,0.00,,SKC,0.00,VWS V14.01,2013-08-27 16:09:00,
2013-08-27 11:14:00,86.4,59.2,29.93,West,279,7.2,7.2,40,0.00,,SKC,0.00,VWS V14.01,2013-08-27 16:14:00,
2013-08-27 11:19:00,86.4,59.2,29.93,West,279,7.2,7.2,40,0.00,,SKC,0.00,VWS V14.01,2013-08-27 16:19:00,
2013-08-27 11:24:00,86.5,59.4,29.93,West,279,7.2,7.2,40,0.00,,SKC,0.00,VWS V14.01,2013-08-27 16:24:00,
2013-08-27 11:29:00,86.5,59.4,29.93,West,279,7.2,7.2,40,0.00,,SKC,0.00,VWS V14.01,2013-08-27 16:29:00,
2013-08-27 11:34:00,86.9,59.7,29.93,West,279,7.2,7.2,40,0.00,,SKC,0.00,VWS V14.01,2013-08-27 16:34:00,
2013-08-27 11:39:00,87.6,61.0,29.93,West,279,7.2,7.2,41,0.00,,SKC,0.00,VWS V14.01,2013-08-27 16:39:00,
2013-08-27 11:44:00,88.0,60.0,29.93,West,279,7.2,7.2,39,0.00,,SKC,0.00,VWS V14.01,2013-08-27 16:44:00,
2013-08-27 11:49:00,88.0,60.0,29.93,West,279,7.2,7.2,39,0.00,,SKC,0.00,VWS V14.01,2013-08-27 16:49:00,
2013-08-27 11:54:00,88.0,59.2,29.93,West,279,7.2,7.2,38,0.00,,SKC,0.00,VWS V14.01,2013-08-27 16:54:00,
2013-08-27 11:59:00,88.3,61.0,29.93,West,279,7.2,7.2,40,0.00,,SKC,0.00,VWS V14.01,2013-08-27 16:59:00,
2013-08-27 12:04:00,88.2,59.4,29.93,West,279,7.2,7.2,38,0.00,,SKC,0.00,VWS V14.01,2013-08-27 17:04:00,
2013-08-27 12:09:00,88.5,60.4,29.93,West,279,7.2,7.2,39,0.00,,SKC,0.00,VWS V14.01,2013-08-27 17:09:00,
2013-08-27 12:14:00,88.9,60.0,29.93,West,279,7.2,7.2,38,0.00,,SKC,0.00,VWS V14.01,2013-08-27 17:14:00,
2013-08-27 12:19:00,88.7,59.9,29.93,West,279,7.2,7.2,38,0.00,,SKC,0.00,VWS V14.01,2013-08-27 17:19:00,
2013-08-27 12:24:00,88.9,60.8,29.91,West,279,7.2,7.2,39,0.00,,SKC,0.00,VWS V14.01,2013-08-27 17:24:00,
2013-08-27 12:29:00,89.2,61.1,29.91,West,279,7.2,7.2,39,0.00,,SKC,0.00,VWS V14.01,2013-08-27 17:29:00,
2013-08-27 12:34:00,89.6,60.7,29.91,West,279,7.2,7.2,38,0.00,,SKC,0.00,VWS V14.01,2013-08-27 17:34:00,
2013-08-27 12:39:00,89.4,60.5,29.91,West,279,7.2,7.2,38,0.00,,SKC,0.00,VWS V14.01,2013-08-27 17:39:00,
2013-08-27 12:44:00,89.6,60.7,29.91,West,279,7.2,7.2,38,0.00,,SKC,0.00,VWS V14.01,2013-08-27 17:44:00,
2013-08-27 12:49:00,89.8,60.8,29.91,West,279,7.2,7.2,38,0.00,,SKC,0.00,VWS V14.01,2013-08-27 17:49:00,
2013-08-27 12:54:00,90.0,61.0,29.91,West,279,7.2,7.2,38,0.00,,SKC,0.00,VWS V14.01,2013-08-27 17:54:00,
2013-08-27 12:59:00,90.1,61.1,29.91,West,279,7.2,7.2,38,0.00,,SKC,0.00,VWS V14.01,2013-08-27 17:59:00,
2013-08-27 16:24:00,91.9,62.0,29.91,North,0,0.0,0.0,37,0.00,,SKC,0.00,VWS V14.01,2013-08-27 21:24:00,
2013-08-27 16:29:00,92.3,62.3,29.91,North,0,0.0,0.0,37,0.00,,SKC,0.00,VWS V14.01,2013-08-27 21:29:00,
2013-08-27 16:34:00,92.1,62.1,29.91,North,0,0.0,0.0,37,0.00,,SKC,0.00,VWS V14.01,2013-08-27 21:34:00,
2013-08-27 16:46:00,92.1,62.9,29.88,North,0,0.0,0.0,38,0.00,,SKC,0.00,VWS V14.01,2013-08-27 21:46:00,
2013-08-27 16:51:00,92.1,62.1,29.88,North,0,0.0,0.0,37,0.00,,SKC,0.00,VWS V14.01,2013-08-27 21:51:00,
2013-08-27 16:56:00,91.8,61.8,29.88,North,0,0.0,0.0,37,0.00,,SKC,0.00,VWS V14.01,2013-08-27 21:56:00,
2013-08-27 17:02:00,91.6,61.7,29.88,North,0,0.0,0.0,37,0.00,,SKC,0.00,VWS V14.01,2013-08-27 22:02:00,
2013-08-27 17:07:00,91.6,61.7,29.88,North,0,0.0,0.0,37,0.00,,SKC,0.00,VWS V14.01,2013-08-27 22:07:00,
2013-08-27 17:13:00,91.2,62.1,29.88,North,0,0.0,0.0,38,0.00,,SKC,0.00,VWS V14.01,2013-08-27 22:13:00,
2013-08-27 17:18:00,91.2,62.8,29.88,North,0,0.0,0.0,39,0.00,,SKC,0.00,VWS V14.01,2013-08-27 22:18:00,
2013-08-27 17:24:00,91.2,62.8,29.88,North,0,0.0,0.0,39,0.00,,SKC,0.00,VWS V14.01,2013-08-27 22:24:00,
2013-08-27 17:29:00,91.2,63.5,29.88,North,0,0.0,0.0,40,0.00,,SKC,0.00,VWS V14.01,2013-08-27 22:29:00,
2013-08-27 17:34:00,91.0,62.7,29.88,North,0,0.0,0.0,39,0.00,,SKC,0.00,VWS V14.01,2013-08-27 22:34:00,
2013-08-27 17:39:00,90.9,63.9,29.91,North,0,0.0,0.0,41,0.00,,SKC,0.00,VWS V14.01,2013-08-27 22:39:00,
2013-08-27 17:44:00,90.9,63.2,29.91,North,0,0.0,0.0,40,0.00,,SKC,0.00,VWS V14.01,2013-08-27 22:44:00,
2013-08-27 17:49:00,90.9,63.2,29.91,North,0,0.0,0.0,40,0.00,,SKC,0.00,VWS V14.01,2013-08-27 22:49:00,
2013-08-27 17:55:00,90.7,63.1,29.91,North,0,0.0,0.0,40,0.00,,SKC,0.00,VWS V14.01,2013-08-27 22:55:00,
2013-08-27 18:00:00,90.5,62.9,29.91,North,0,0.0,0.0,40,0.00,,SKC,0.00,VWS V14.01,2013-08-27 23:00:00,
2013-08-27 18:05:00,90.5,63.6,29.91,North,0,0.0,0.0,41,0.00,,SKC,0.00,VWS V14.01,2013-08-27 23:05:00,
2013-08-27 18:10:00,90.3,63.5,29.91,North,0,0.0,0.0,41,0.00,,SKC,0.00,VWS V14.01,2013-08-27 23:10:00,
2013-08-27 18:15:00,90.3,64.1,29.91,North,0,0.0,0.0,42,0.00,,SKC,0.00,VWS V14.01,2013-08-27 23:15:00,
2013-08-27 18:20:00,90.1,64.7,29.91,North,0,0.0,0.0,43,0.00,,SKC,0.00,VWS V14.01,2013-08-27 23:20:00,
2013-08-27 18:25:00,90.1,64.7,29.91,North,0,0.0,0.0,43,0.00,,SKC,0.00,VWS V14.01,2013-08-27 23:25:00,
2013-08-27 18:30:00,90.1,65.9,29.91,North,0,0.0,0.0,45,0.00,,SKC,0.00,VWS V14.01,2013-08-27 23:30:00,
2013-08-27 18:35:00,91.4,65.1,29.91,North,0,0.0,0.0,42,0.00,,SKC,0.00,VWS V14.01,2013-08-27 23:35:00,
2013-08-27 18:40:00,92.5,64.7,29.91,North,0,0.0,0.0,40,0.00,,SKC,0.00,VWS V14.01,2013-08-27 23:40:00,
2013-08-27 18:46:00,91.8,64.0,29.91,North,0,0.0,0.0,40,0.00,,SKC,0.00,VWS V14.01,2013-08-27 23:46:00,
2013-08-27 18:51:00,92.1,63.6,29.91,North,0,0.0,0.0,39,0.00,,SKC,0.00,VWS V14.01,2013-08-27 23:51:00,
2013-08-27 18:58:00,92.3,63.0,29.91,North,0,0.0,0.0,38,0.00,,SKC,0.00,VWS V14.01,2013-08-27 23:58:00,
2013-08-27 19:03:00,92.7,63.4,29.91,North,0,0.0,0.0,38,0.00,,SKC,0.00,VWS V14.01,2013-08-28 00:03:00,
2013-08-27 19:08:00,90.5,62.2,29.91,North,0,0.0,0.0,39,0.00,,SKC,0.00,VWS V14.01,2013-08-28 00:08:00,
2013-08-27 19:14:00,88.7,63.3,29.91,North,0,0.0,0.0,43,0.00,,SKC,0.00,VWS V14.01,2013-08-28 00:14:00,
2013-08-27 19:20:00,87.3,65.2,29.91,North,0,0.0,0.0,48,0.00,,SKC,0.00,VWS V14.01,2013-08-28 00:20:00,
2013-08-27 19:25:00,86.5,65.1,29.91,North,0,0.0,0.0,49,0.00,,SKC,0.00,VWS V14.01,2013-08-28 00:25:00,
2013-08-27 19:30:00,85.8,65.6,29.91,North,0,0.0,0.0,51,0.00,,SKC,0.00,VWS V14.01,2013-08-28 00:30:00,
2013-08-27 19:35:00,85.1,65.5,29.91,North,0,0.0,0.0,52,0.00,,SKC,0.00,VWS V14.01,2013-08-28 00:35:00,
2013-08-27 19:40:00,84.7,65.7,29.91,North,0,0.0,0.0,53,0.00,,SKC,0.00,VWS V14.01,2013-08-28 00:40:00,
2013-08-27 19:45:00,84.4,65.4,29.91,North,0,0.0,0.0,53,0.00,,SKC,0.00,VWS V14.01,2013-08-28 00:45:00,
2013-08-27 19:50:00,84.0,66.1,29.91,North,0,0.0,0.0,55,0.00,,SKC,0.00,VWS V14.01,2013-08-28 00:50:00,
2013-08-27 19:56:00,83.7,66.8,29.91,North,0,0.0,0.0,57,0.00,,SKC,0.00,VWS V14.01,2013-08-28 00:56:00,
2013-08-27 20:01:00,83.3,67.0,29.91,North,0,0.0,0.0,58,0.00,,SKC,0.00,VWS V14.01,2013-08-28 01:01:00,
2013-08-27 20:08:00,82.9,67.6,29.91,North,0,0.0,0.0,60,0.00,,SKC,0.00,VWS V14.01,2013-08-28 01:08:00,
2013-08-27 20:14:00,82.8,67.5,29.91,North,0,0.0,0.0,60,0.00,,SKC,0.00,VWS V14.01,2013-08-28 01:14:00,
2013-08-27 20:19:00,82.6,67.3,29.91,North,0,0.0,0.0,60,0.00,,SKC,0.00,VWS V14.01,2013-08-28 01:19:00,
2013-08-27 20:24:00,82.2,67.4,29.91,North,0,0.0,0.0,61,0.00,,SKC,0.00,VWS V14.01,2013-08-28 01:24:00,
2013-08-27 20:30:00,81.9,66.6,29.91,North,0,0.0,0.0,60,0.00,,SKC,0.00,VWS V14.01,2013-08-28 01:30:00,
2013-08-27 20:35:00,81.7,66.9,29.91,North,0,0.0,0.0,61,0.00,,SKC,0.00,VWS V14.01,2013-08-28 01:35:00,
2013-08-27 20:40:00,81.5,66.8,29.91,North,0,0.0,0.0,61,0.00,,SKC,0.00,VWS V14.01,2013-08-28 01:40:00,
2013-08-27 20:45:00,81.1,66.9,29.91,North,0,0.0,0.0,62,0.00,,SKC,0.00,VWS V14.01,2013-08-28 01:45:00,
2013-08-27 20:50:00,81.0,66.7,29.91,North,0,0.0,0.0,62,0.00,,SKC,0.00,VWS V14.01,2013-08-28 01:50:00,
2013-08-27 20:55:00,81.1,67.4,29.93,North,0,0.0,0.0,63,0.00,,SKC,0.00,VWS V14.01,2013-08-28 01:55:00,
2013-08-27 21:01:00,81.0,67.2,29.93,North,0,0.0,0.0,63,0.00,,SKC,0.00,VWS V14.01,2013-08-28 02:01:00,
2013-08-27 21:07:00,80.8,67.0,29.93,North,0,0.0,0.0,63,0.00,,SKC,0.00,VWS V14.01,2013-08-28 02:07:00,
2013-08-27 21:13:00,80.4,67.6,29.93,North,0,0.0,0.0,65,0.00,,SKC,0.00,VWS V14.01,2013-08-28 02:13:00,
2013-08-27 21:19:00,80.1,66.8,29.93,North,0,0.0,0.0,64,0.00,,SKC,0.00,VWS V14.01,2013-08-28 02:19:00,
2013-08-27 21:25:00,79.9,67.1,29.93,North,0,0.0,0.0,65,0.00,,SKC,0.00,VWS V14.01,2013-08-28 02:25:00,
2013-08-27 21:30:00,79.7,66.9,29.93,North,0,0.0,0.0,65,0.00,,SKC,0.00,VWS V14.01,2013-08-28 02:30:00,
2013-08-27 21:35:00,79.7,66.9,29.93,North,0,0.0,0.0,65,0.00,,SKC,0.00,VWS V14.01,2013-08-28 02:35:00,
2013-08-27 21:40:00,79.5,67.2,29.93,North,0,0.0,0.0,66,0.00,,SKC,0.00,VWS V14.01,2013-08-28 02:40:00,
2013-08-27 21:45:00,79.5,67.2,29.93,North,0,0.0,0.0,66,0.00,,SKC,0.00,VWS V14.01,2013-08-28 02:45:00,
2013-08-27 21:50:00,79.3,67.0,29.93,North,0,0.0,0.0,66,0.00,,SKC,0.00,VWS V14.01,2013-08-28 02:50:00,
2013-08-27 21:55:00,79.0,66.7,29.93,North,0,0.0,0.0,66,0.00,,SKC,0.00,VWS V14.01,2013-08-28 02:55:00,
2013-08-27 22:00:00,79.0,67.1,29.93,North,0,0.0,0.0,67,0.00,,SKC,0.00,VWS V14.01,2013-08-28 03:00:00,
2013-08-27 22:05:00,78.8,66.9,29.93,North,0,0.0,0.0,67,0.00,,SKC,0.00,VWS V14.01,2013-08-28 03:05:00,
2013-08-27 22:10:00,78.8,66.9,29.93,North,0,0.0,0.0,67,0.00,,SKC,0.00,VWS V14.01,2013-08-28 03:10:00,
2013-08-27 22:15:00,78.6,67.2,29.93,North,0,0.0,0.0,68,0.00,,SKC,0.00,VWS V14.01,2013-08-28 03:15:00,
2013-08-27 22:20:00,78.6,67.2,29.93,North,0,0.0,0.0,68,0.00,,SKC,0.00,VWS V14.01,2013-08-28 03:20:00,
2013-08-27 22:25:00,78.4,67.4,29.93,North,0,0.0,0.0,69,0.00,,SKC,0.00,VWS V14.01,2013-08-28 03:25:00,
2013-08-27 22:30:00,78.3,67.3,29.93,North,0,0.0,0.0,69,0.00,,SKC,0.00,VWS V14.01,2013-08-28 03:30:00,
2013-08-27 22:35:00,77.9,66.9,29.93,North,0,0.0,0.0,69,0.00,,SKC,0.00,VWS V14.01,2013-08-28 03:35:00,
2013-08-27 22:40:00,77.9,66.9,29.93,North,0,0.0,0.0,69,0.00,,SKC,0.00,VWS V14.01,2013-08-28 03:40:00,
2013-08-27 22:45:00,77.7,67.2,29.93,North,0,0.0,0.0,70,0.00,,SKC,0.00,VWS V14.01,2013-08-28 03:45:00,
2013-08-27 22:50:00,77.7,67.2,29.93,North,0,0.0,0.0,70,0.00,,SKC,0.00,VWS V14.01,2013-08-28 03:50:00,
2013-08-27 22:55:00,77.5,67.0,29.96,North,0,0.0,0.0,70,0.00,,SKC,0.00,VWS V14.01,2013-08-28 03:55:00,
2013-08-27 23:00:00,77.7,67.2,29.96,North,0,0.0,0.0,70,0.00,,SKC,0.00,VWS V14.01,2013-08-28 04:00:00,
2013-08-27 23:01:00,77.5,67.0,29.96,North,0,0.0,0.0,70,0.00,,SKC,0.00,VWS V14.01,2013-08-28 04:01:00,
2013-08-27 23:02:00,77.5,67.0,29.96,North,0,0.0,0.0,70,0.00,,SKC,0.00,VWS V14.01,2013-08-28 04:02:00,
2013-08-27 23:03:00,77.5,67.0,29.96,North,0,0.0,0.0,70,0.00,,SKC,0.00,VWS V14.01,2013-08-28 04:03:00,
2013-08-27 23:05:00,77.5,67.0,29.96,North,0,0.0,0.0,70,0.00,,SKC,0.00,VWS V14.01,2013-08-28 04:05:00,
2013-08-27 23:06:00,77.5,67.0,29.96,North,0,0.0,0.0,70,0.00,,SKC,0.00,VWS V14.01,2013-08-28 04:06:00,
2013-08-27 23:12:00,77.4,67.2,29.96,North,0,0.0,0.0,71,0.00,,SKC,0.00,VWS V14.01,2013-08-28 04:12:00,
2013-08-27 23:15:00,77.2,67.1,29.96,North,0,0.0,0.0,71,0.00,,SKC,0.00,VWS V14.01,2013-08-28 04:15:00,
2013-08-27 23:20:00,77.2,67.1,29.96,North,0,0.0,0.0,71,0.00,,SKC,0.00,VWS V14.01,2013-08-28 04:20:00,
2013-08-27 23:25:00,77.0,67.3,29.96,North,0,0.0,0.0,72,0.00,,SKC,0.00,VWS V14.01,2013-08-28 04:25:00,
2013-08-27 23:30:00,77.0,67.3,29.96,North,0,0.0,0.0,72,0.00,,SKC,0.00,VWS V14.01,2013-08-28 04:30:00,
2013-08-27 23:35:00,77.0,67.3,29.96,North,0,0.0,0.0,72,0.00,,SKC,0.00,VWS V14.01,2013-08-28 04:35:00,
2013-08-27 23:40:00,77.0,67.7,29.96,North,0,0.0,0.0,73,0.00,,SKC,0.00,VWS V14.01,2013-08-28 04:40:00,
2013-08-27 23:45:00,76.8,67.5,29.96,North,0,0.0,0.0,73,0.00,,SKC,0.00,VWS V14.01,2013-08-28 04:45:00,
2013-08-27 23:50:00,76.8,67.9,29.96,North,0,0.0,0.0,74,0.00,,SKC,0.00,VWS V14.01,2013-08-28 04:50:00,
2013-08-27 23:55:00,76.6,67.7,29.96,North,0,0.0,0.0,74,0.00,,SKC,0.00,VWS V14.01,2013-08-28 04:55:00,